Regional Weather Roundup
Issued by NWS

Home | Current Version | Previous Version | Graphics & Text | Print | Product List | Glossary On
Versions: 1 2 3 4 5 6 7 8 9 10 11 12 13 14 15 16 17 18 19 20 21 22 23 24 25 26 27 28 29 30 31 32 33 34 35 36 37 38 39 40 41 42 43 44 45 46 47 48 49 50
000
ASUS43 KLSX 061110
RWRMO

WEATHER SUMMARY FOR MISSOURI
NATIONAL WEATHER SERVICE SPRINGFIELD MO
500 AM CST TUE DEC 06 2016

NOTE: "FAIR" INDICATES FEW OR NO CLOUDS BELOW 12,000 FEET WITH NO
       SIGNIFICANT WEATHER AND/OR OBSTRUCTIONS TO VISIBILITY.
       CURRENT SKY AND/OR WEATHER CONDITIONS ARE NOT AVAILABLE FOR
       CHILLICOTHE AND FARMINGTON.

MOZ001>031-035>038-043-044-053-054-061200-
...NORTHERN AND WESTERN MISSOURI...

CITY           SKY/WX    TMP DP  RH WIND       PRES   REMARKS
KANSAS CTY INT CLOUDY    35  27  72 N14       29.88R WCI  26
KANSAS C DTWN  CLOUDY    37  28  70 N17G28    29.87R WCI  27
LEE`S SUMMIT   CLOUDY    38  34  85 N23G32    29.86R WCI  27
ST JOSEPH      CLOUDY    34  28  79 N14       29.91R WCI  25
CHILLICOTHE      N/A     35  34  96 NW7       29.85R WCI  29
KIRKSVILLE     CLOUDY    35  35 100 NW6       29.81S FOG

$$
MOZ066>068-077>081-088>096-101>105-061200-
...SOUTHWEST MISSOURI...

CITY           SKY/WX    TMP DP  RH WIND       PRES   REMARKS
SPRINGFIELD    MOCLDY    34  33  96 NW8       29.77R FOG     WCI  27
JOPLIN         MOCLDY    34  34 100 CALM      29.82R
BRANSON        PTCLDY    39  39 100 W3        29.77S FOG

$$
MOZ032>034-039>042-045>050-055>058-069>072-061200-
...CENTRAL MISSOURI...

CITY           SKY/WX    TMP DP  RH WIND       PRES   REMARKS
COLUMBIA       FOG       30  30 100 NW6       29.78R VSB 1/4 WCI  24
JEFFERSON CITY FOG       32  32 100 NW3       29.80R VSB 1/4
ROLLA          CLOUDY    34  34 100 NW5       29.74R WCI  30
SEDALIA        FOG       31  30  96 NW7       29.82R VSB 1/2 WCI  24
WHITEMAN AFB   CLOUDY    30  30 100 CALM      29.81R FOG
WARRENSBURG    CLEAR     32  32 100 NW8       29.83R WCI  25
OSAGE BEACH    PTCLDY    31  30  96 NW3       29.79R

$$
MOZ051-052-059>065-061200-
...EAST CENTRAL MISSOURI...

CITY           SKY/WX    TMP DP  RH WIND       PRES   REMARKS
ST LOUIS INTL  LGT RAIN  39  34  82 N6        29.75F
SPIRIT OF STL  LGT RAIN  38  37  97 N6        29.76R
ST CHARLES     MOCLDY    37  36  96 NW8       29.76S

$$
MOZ072>076-082>087-097>100-106>115-061200-
...SOUTH CENTRAL AND SOUTHEAST MISSOURI...

CITY           SKY/WX    TMP DP  RH WIND       PRES   REMARKS
CAPE GIRARDEAU LGT RAIN  40  38  93 N5        29.70S
FARMINGTON     LGT RAIN  37  36  93 N7        29.72S FOG
POPLAR BLUFF   LGT RAIN  41  40  96 N6        29.70S
WEST PLAINS    CLOUDY    39  38  96 W7        29.74R FOG

$$




USA.gov is the U.S. government's official web portal to all federal, state and local government web resources and services.